Weather in Lamerd

Iran     27°42′20″N   52°39′54″E
temp.,
°C
wind,
m/s
gust,
m/s
humid.,
%
clouds,
%
prec.,
mm/h
press.,
hPa
HPBL,
m
20 may, fri
fri2001:30+29nw817120 0.0 1005326
04:30+28nw816120 0.0 1004291
07:30+28nw611120 0.0 1005268
10:30+36nnw5660 0.0 1006719
13:30+41nw7740 0.0 10042106
16:30+42nw11930 0.0 10022786
19:30+36wnw915100 0.0 1002413
22:30+33nw918130 0.0 1004437
21 may, sat
sat2101:30+31nw816140 0.0 1003282
04:30+28nnw46160 0.0 100370
07:30+29nnw22140 0.0 100438
10:30+37nnw4480 0.0 1005737
13:30+41nnw4460 0.0 10032024
16:30+43nw121040 0.0 10004046
19:30+37nw131980 0.0 10011000
22:30+34nw142280 0.0 1003718
22 may, sun
sun2201:30+33nw132280 0.0 1001597
04:30+31nw111990 0.0 1001433
07:30+30nw91580 0.0 1002434
10:30+37nnw7850 0.0 1001861
13:30+42nw10830 0.0 9992584
16:30+41nw11930 0.0 9982620
19:30+35wnw71240 0.0 999236
22:30+30wnw61570 0.0 1000251
23 may, mon
mon2301:30+28wnw4680 0.0 99963
04:30+25n2280 0.0 99911
07:30+29e1160 0.0 100014
10:30+36ese3340 0.0 1001921
13:30+39ssw2250 0.0 10002103
16:30+38sw44130 0.0 9991539
19:30+33wsw32250 0.0 100023
22:30+29s11320 0.0 100211
24 may, tue
tue2401:30+28nnw22210 0.0 100111
04:30+26ne11220 0.0 100111
07:30+29nnw34200 0.0 100379
10:30+36n1390 0.0 1003622
13:30+41wsw4760 0.0 10023693
16:30+40wsw6770 0.0 10021824
19:30+35wnw57100 0.0 1003155
22:30+30wnw510130 0.0 1006127